Mitchell, SD

6:30 PM CDT on September 22, 2019 (GMT -0500)
Mitchell Municipal

Weather History for KMHE - June, 2019

Change the Weather History Date:

Saturday, June 1, 2019

  Actual Average Record
Temperature  
Mean Temperature 62 °F 64 °F  
Max Temperature 70 °F 75 °F 98 °F (1940)
Min Temperature 54 °F 54 °F 31 °F (1946)
Degree Days  
Heating Degree Days 3 3  
Month to date heating degree days 3 3  
Since 1 June heating degree days 3 3  
Since 1 July heating degree days 7982 7213  
Cooling Degree Days 0 2  
Month to date cooling degree days 0 2  
Year to date cooling degree days 19 42  
Since 1 June cooling degree days 0 2  
Growing Degree Days 12 (Base 50)    
Moisture  
Dew Point 49 °F    
Average Humidity 63    
Maximum Humidity 84    
Minimum Humidity 42    
Precipitation  
Precipitation 0.01 in 0.15 in 2.77 in (1920)
Month to date precipitation 0.01 0.15  
Year to date precipitation 11.85 6.88  
Snow  
Snow 0.00 in - 0.00 in ()
Month to date snowfall 0.0  
Since 1 June snowfall 0.0  
Since 1 July snowfall 67.6  
Snow Depth 0.00 in    
Sea Level Pressure  
Sea Level Pressure 29.96 in    
Wind  
Wind Speed 9 mph (NNW)    
Max Wind Speed 17 mph    
Max Gust Speed 23 mph    
Visibility 10 miles    
Events Rain    
T = Trace of Precipitation, MM = Missing Value Source: NWS Daily Summary

Daily Weather History Graph

Daily Weather History Graph

Search for Another Location

Airport or City:

Astronomy

Jun. 01, 2019 Rise Set
Actual Time 5:53 AM CDT 9:07 PM CDT
Civil Twilight 5:18 AM CDT 9:42 PM CDT
Nautical Twilight 4:32 AM CDT 10:27 PM CDT
Astronomical Twilight 3:37 AM CDT 11:23 PM CDT
Moon 5:04 AM CDT (6/1) 7:17 PM CDT (6/1)
Length of Visible Light 16h 24m
Length of Day
15h 13m
Waning Crescent, 4% of the Moon is Illuminated
Jun 1
Waning Crescent
Jun 3
New
Jun 10
First Quarter
Jun 17
Full
Jun 25
Last Quarter

Hourly Weather History & Observations

Time (CDT) Temp. Dew Point Humidity Pressure Visibility Wind Dir Wind Speed Gust Speed Precip Events Conditions
12:53 AM 62.1 °F 57.0 °F 84% 29.86 in 10.0 mi West 4.6 mph - 0.00 in Rain Light Rain
1:53 AM 61.0 °F 55.9 °F 83% 29.84 in 10.0 mi SSE 6.9 mph - 0.01 in   Clear
2:53 AM 60.1 °F 55.9 °F 86% 29.86 in 10.0 mi NNW 6.9 mph - N/A   Clear
3:53 AM 60.1 °F 54.0 °F 80% 29.88 in 10.0 mi North 11.5 mph - N/A   Clear
4:53 AM 57.0 °F 51.1 °F 81% 29.89 in 10.0 mi NNW 8.1 mph - N/A   Clear
5:53 AM 55.0 °F 48.9 °F 80% 29.91 in 10.0 mi NNW 12.7 mph - N/A   Clear
6:53 AM 54.0 °F 46.0 °F 75% 29.94 in 10.0 mi NNW 11.5 mph - N/A   Clear
7:53 AM 55.0 °F 46.0 °F 72% 29.96 in 10.0 mi NNW 13.8 mph - N/A   Clear
8:53 AM 55.9 °F 46.0 °F 69% 29.98 in 10.0 mi North 11.5 mph - N/A   Clear
9:53 AM 57.9 °F 46.9 °F 67% 30.00 in 10.0 mi NNW 10.4 mph - N/A   Clear
10:53 AM 62.1 °F 46.0 °F 56% 30.01 in 10.0 mi North 16.1 mph - N/A   Clear
11:53 AM 64.9 °F 46.9 °F 52% 30.01 in 10.0 mi NNW 9.2 mph 19.6 mph N/A   Clear
12:53 PM 66.9 °F 46.9 °F 49% 30.01 in 10.0 mi North 10.4 mph 20.7 mph N/A   Clear
1:53 PM 68.0 °F 46.9 °F 47% 30.01 in 10.0 mi NNW 15.0 mph 20.7 mph N/A   Clear
2:53 PM 68.0 °F 48.0 °F 49% 30.01 in 10.0 mi NNW 12.7 mph - N/A   Clear
3:53 PM 69.1 °F 48.9 °F 49% 29.99 in 10.0 mi NNW 12.7 mph 18.4 mph N/A   Clear
4:53 PM 69.1 °F 46.0 °F 44% 29.99 in 10.0 mi NNW 13.8 mph 18.4 mph N/A   Clear
5:53 PM 69.1 °F 46.0 °F 44% 29.99 in 10.0 mi NNW 11.5 mph - N/A   Clear
6:53 PM 68.0 °F 45.0 °F 43% 29.98 in 10.0 mi NNW 9.2 mph - N/A   Clear
7:53 PM 66.9 °F 45.0 °F 45% 29.97 in 10.0 mi NNW 8.1 mph - N/A   Clear
8:53 PM 61.0 °F 48.0 °F 62% 29.97 in 10.0 mi NNW 5.8 mph - N/A   Clear
9:53 PM 62.1 °F 46.9 °F 58% 29.99 in 10.0 mi WNW 3.5 mph - N/A   Clear
10:53 PM 57.9 °F 46.0 °F 65% 30.01 in 10.0 mi Calm Calm - N/A   Clear
11:53 PM 55.0 °F 50.0 °F 83% 30.00 in 10.0 mi Calm Calm - N/A   Clear